STARLINK-1471, 45735

Orbit data source: Space-Track

STARLINK-1471, 45735 is a payload satellite owned by SpaceX/Seattle (US) in LEO that was launched on Sat, 13 Jun 2020 UTC via an FALCON 9 launch vehicle from the Air Force Eastern Test Range (AFETR). Payload-class satellites include a variety of spacecraft equipped with specific instruments for various scientific and technological missions. These include communications satellites like Starlink; space stations such as the ISS; scientific satellites like the Hubble; Earth observation satellites from companies like Planet Labs, Umbra, and HawkEye 360; GPS; miniature CubeSats for education and research; and military/defense satellites.

Loading next visibility...
Identifier
45735, 2020-038F
Orbit
LEO
Country
Flag of USUS
Related business
Manufacturer
SpaceX/Seattle
Mission
Partially operational Commercial Communications
Bus & Motor
STARLINK, Unknown motor
Mass
260 kg wet, ~248 kg dry
Launch date (UTC)
2020-06-13 (5 years ago)
Launch vehicle
FALCON 9
Launch site
Air Force Eastern Test Range (AFETR)
Object type
Payload
Rocket body
Debris
Shape & HBR
Box + 1 Pan, 10.1 m
Radar Cross Section
13.562 m², Large (>1 m²)

Expand to show TLE details & history
Last TLE update: 8 hours ago

TLE from 8 hours ago
0 STARLINK-1471
1 45735U 20038F   25304.16460199  .00027327  00000-0  66278-3 0  9990
2 45735  53.0509  38.4428 0001265 138.8796 221.2303 15.40874232297516
Epoch: 2025-10-31T03:57Z
TLE epoch observation values (Epoch: 2025-10-31T03:57:01.611Z)
Latitude
-0.00008°
Longitude
-60.52694°
Altitude
445.069 km
Speed
7.646 km/s
True Right ascension
02h 33m 46s
True Declination
0° 00' 00"
Sunlit
Object was in full shadow at epoch
Visualization orbit readout
Latitude
Unknown
Longitude
Unknown
Altitude
Unknown
Speed
Unknown
Apparent Right ascension
Unknown
Apparent Declination
Unknown
Sunlit
N/A
Visualization observer readout
Local Sidereal Time
08:06:36
Azimuth
Unknown
Elevation
Unknown
Doppler factor
Unknown
Orbital elements
Apogee altitude
444.666 km
Perigee altitude
442.94 km
Semi-major axis
6,821.94 km
Eccentricity
0.00013
Inclination
53.0509°
RAAN
38.4428°
Arg. of periapsis
138.8796°
True anomaly
221.22075°
Mean anomaly
221.2303°
Eccentric anomaly
221.22552°
Mean motion
3.85196 °/min
Orbital period
93.46 mins
BSTAR
0.00066278
Loading maneuver chart data...
Computing Atmospheric mass density...

Documentation

Showing up to 5 results
|